Location: Taylor Dark Sky Site
(39.1017°N, 87.9564°W)
Time: 17:26:17
(UTC-06:00)

Amateur Radio Satellites - All Passes

Search period start: 01 March 2015 16:56
Search period end: 02 March 2015 16:56
Location: Taylor Dark Sky Site, 39.1017°N, 87.9564°W

Satellite Date Start Highest point End Downlink Frequencies (MHz)
Time Altitude Azimuth
AIST 2 01 Mar 17:09:23 17:12:36 22° 112° (ESE) 17:15:57 435.215
PHONESAT 2.4 01 Mar 17:15:03 17:17:16 16° 147° (SSE) 17:19:34 2401.200-2431.200
BEESAT 2 01 Mar 17:18:08 17:22:13 75° 120° (ESE) 17:26:23 435.950
VERMONT LUNAR 01 Mar 17:19:20 17:22:26 30° 153° (SSE) 17:25:34 437.305
AO-7 01 Mar 17:24:48 17:27:44 11° 275° (W) 17:29:54 29.400- 29.500
O/OREOS (USA 219) 01 Mar 17:41:56 17:42:42 10° 50° (NE) 17:43:43 437.305
AIST 1 01 Mar 17:50:43 17:54:58 45° 78° (ENE) 17:59:12
Cubesat XI-IV 01 Mar 17:59:49 18:04:54 42° 262° (W) 18:09:59 437.490
STRAND 1 01 Mar 18:04:34 18:08:53 27° 95° (E) 18:13:16 437.568
PRISM 01 Mar 18:07:55 18:12:03 49° 100° (E) 18:16:09 437.425
HO-68 01 Mar 18:08:58 18:13:15 18° 57° (ENE) 18:17:51 435.675
CUTE-I 01 Mar 18:09:26 18:14:20 35° 264° (W) 18:19:12 437.470
MOZHAYETS 4 01 Mar 18:12:14 18:14:22 13° 295° (WNW) 18:16:15
CUBESAT XI-V 01 Mar 18:28:22 18:33:07 83° 102° (ESE) 18:37:49 437.345
BEESAT 3 01 Mar 18:33:39 18:36:33 18° 315° (NW) 18:39:23 437.485
CUTE 1.7 + AOD 2 01 Mar 18:38:12 18:38:59 11° 65° (ENE) 18:40:01 437.475
AIST 2 01 Mar 18:47:06 18:51:02 35° 308° (NW) 18:55:00 435.215
PHONESAT 2.4 01 Mar 18:51:45 18:55:20 62° 161° (SSE) 18:58:57 2401.200-2431.200
VERMONT LUNAR 01 Mar 18:56:41 19:00:11 85° 347° (NNW) 19:03:42 437.305
BEESAT 2 01 Mar 18:58:55 19:00:58 13° 318° (NW) 19:02:53 435.950
BRITE-PL 01 Mar 19:04:12 19:09:31 44° 72° (ENE) 19:14:43 437.365/2234.400
GOMX 1 01 Mar 19:15:30 19:20:27 38° 72° (ENE) 19:25:15 467.674
O/OREOS (USA 219) 01 Mar 19:18:17 19:22:55 87° 250° (WSW) 19:27:29 437.305
AAUSAT CUBESAT 2 01 Mar 19:24:02 19:27:06 21° 69° (ENE) 19:30:16 437.432
COMPASS 1 01 Mar 19:25:21 19:28:43 25° 70° (ENE) 19:32:10 437.405
AIST 1 01 Mar 19:29:53 19:32:17 14° 273° (W) 19:34:27
STRAND 1 01 Mar 19:43:29 19:48:08 34° 291° (WNW) 19:52:41 437.568
PRISM 01 Mar 19:44:53 19:47:11 14° 294° (WNW) 19:49:18 437.425
SEEDS 01 Mar 19:50:09 19:54:15 59° 76° (ENE) 19:58:23 437.485
CANX-2 01 Mar 19:51:25 19:55:38 83° 77° (ENE) 19:59:52 2200.000
FUNcube-1 01 Mar 19:52:27 19:53:14 11° 65° (ENE) 19:54:18 145.935
ZACube-1 01 Mar 19:52:57 19:54:03 11° 65° (ENE) 19:55:24 437.345
HO-68 01 Mar 19:53:01 20:00:11 88° 260° (W) 20:07:23 435.675
DOVE 4 01 Mar 19:55:40 20:00:48 65° 76° (ENE) 20:05:44 437.250
UKube-1 01 Mar 20:02:04 20:04:11 14° 65° (ENE) 20:06:30 .
UWE-3 01 Mar 20:07:17 20:10:28 20° 69° (ENE) 20:13:43 435.000/436.395/437.385
CUBESAT XI-V 01 Mar 20:08:56 20:09:58 10° 297° (WNW) 20:10:42 437.345
CUTE 1.7 + AOD 2 01 Mar 20:10:15 20:14:27 66° 260° (W) 20:18:38 437.475
CINEMA 3 01 Mar 20:12:39 20:17:19 51° 74° (ENE) 20:21:49 145.822/145.860
PCSat 01 Mar 20:21:40 20:26:58 62° 115° (ESE) 20:32:21 145.827
PHONESAT 2.4 01 Mar 20:30:12 20:33:51 69° 358° (N) 20:37:28 2401.200-2431.200
VERMONT LUNAR 01 Mar 20:34:45 20:38:14 71° 5° (N) 20:41:43 437.305
DELFI C3 01 Mar 20:37:34 20:41:29 53° 75° (ENE) 20:45:26 145.870
CUBEBUG 2 01 Mar 20:41:01 20:45:28 57° 75° (ENE) 20:49:49 437.445
Oscar 11 01 Mar 20:42:21 20:46:38 80° 77° (ENE) 20:50:57 145.826/435.025
BRITE-PL 01 Mar 20:43:34 20:48:11 24° 267° (W) 20:52:34 437.365/2234.400
GOMX 1 01 Mar 20:54:06 20:58:39 26° 266° (W) 21:02:56 467.674
AAUSAT CUBESAT 2 01 Mar 20:58:58 21:02:37 29° 264° (W) 21:06:14 437.432
COMPASS 1 01 Mar 21:00:56 21:04:23 24° 265° (W) 21:07:46 437.405
GONETS M04 01 Mar 21:02:13 21:10:08 43° 89° (E) 21:18:13
AISAT 01 Mar 21:03:27 21:07:14 27° 69° (ENE) 21:11:05 437.250
DX 1 01 Mar 21:04:34 21:08:55 71° 75° (ENE) 21:13:19 434.975-435.025
CUBEBUG 1 01 Mar 21:12:26 21:14:43 14° 66° (ENE) 21:17:12 437.445
VELOX 1 01 Mar 21:13:15 21:17:15 33° 71° (ENE) 21:21:19 145.980
RS-15 01 Mar 21:20:38 21:27:17 20° 102° (ESE) 21:34:39 29.354- 29.394
FUNcube-1 01 Mar 21:24:44 21:29:08 70° 258° (WSW) 21:33:26 145.935
ESTCUBE 1 01 Mar 21:25:21 21:28:45 22° 68° (ENE) 21:32:17 437.505/2401.250
ZACube-1 01 Mar 21:25:36 21:29:59 67° 259° (W) 21:34:17 437.345
SEEDS 01 Mar 21:29:56 21:30:34 10° 272° (W) 21:30:54 437.485
UKube-1 01 Mar 21:35:41 21:39:56 53° 260° (W) 21:44:14 .
DOVE 4 01 Mar 21:36:13 21:39:00 14° 271° (W) 21:41:27 437.250
HUMSAT D 01 Mar 21:37:26 21:41:39 86° 77° (ENE) 21:45:51 437.325/437.525
UNISAT 6 01 Mar 21:39:37 21:42:42 20° 93° (E) 21:45:55 437.425
NANOSAT C BR1 01 Mar 21:42:14 21:42:23 10° 88° (E) 21:42:51 145.865
UWE-3 01 Mar 21:42:43 21:46:51 35° 263° (W) 21:50:51 435.000/436.395/437.385
HO-68 01 Mar 21:45:17 21:49:00 14° 273° (W) 21:52:13 435.675
50 SAT 01 Mar 21:45:49 21:49:48 75° 76° (ENE) 21:53:47 437.505
CINEMA 3 01 Mar 21:51:52 21:54:49 15° 269° (W) 21:57:30 145.822/145.860
TIGRISAT 01 Mar 22:04:35 22:08:32 36° 97° (E) 22:12:32 435.000
PCSat 01 Mar 22:06:48 22:10:53 21° 314° (NW) 22:14:51 145.827
PHONESAT 2.4 01 Mar 22:08:46 22:12:24 84° 196° (SSW) 22:16:02 2401.200-2431.200
QB50P1 01 Mar 22:11:57 22:15:23 24° 94° (E) 22:18:52 145.935-145.965
VERMONT LUNAR 01 Mar 22:12:45 22:16:08 49° 202° (SSW) 22:19:29 437.305
QB50P2 01 Mar 22:15:18 22:18:52 27° 95° (E) 22:22:30 145.880/145.840
DELFI C3 01 Mar 22:16:08 22:17:07 11° 271° (W) 22:17:50 145.870
ANTELSAT 01 Mar 22:17:24 22:21:36 53° 100° (E) 22:25:52 437.575/2403.000
CUBEBUG 2 01 Mar 22:20:30 22:22:34 12° 270° (W) 22:24:21 437.445
BUGSAT 1 01 Mar 22:27:49 22:31:20 26° 95° (E) 22:34:49 437.445
DUCHIFAT 1 01 Mar 22:31:03 22:35:01 39° 98° (E) 22:38:58 145.980
AISAT 01 Mar 22:39:59 22:43:49 26° 265° (W) 22:47:35 437.250
CUBEBUG 1 01 Mar 22:46:21 22:50:42 53° 260° (W) 22:55:05 437.445
POLYITAN 1 01 Mar 22:49:52 22:54:05 69° 101° (E) 22:58:17 437.675
VELOX 1 01 Mar 22:50:27 22:53:56 21° 267° (W) 22:57:18 145.980
POPSAT HIP 1 01 Mar 22:50:55 22:55:09 70° 101° (ESE) 22:59:20 437.405
GONETS M04 01 Mar 22:59:03 23:07:05 39° 288° (WNW) 23:15:02
ESTCUBE 1 01 Mar 23:01:20 23:05:28 34° 263° (W) 23:09:35 437.505/2401.250
DANDE 01 Mar 23:09:05 23:15:12 33° 95° (E) 23:20:12 436.750
NANOSAT C BR1 01 Mar 23:14:35 23:18:46 61° 285° (WNW) 23:22:54 145.865
UNISAT 6 01 Mar 23:15:44 23:19:37 33° 288° (WNW) 23:23:28 437.425
ITUPSAT 1 01 Mar 23:17:44 23:19:34 12° 63° (ENE) 23:21:39 437.325
SPROUT 01 Mar 23:22:27 23:26:48 87° 257° (WSW) 23:31:10 437.525
RS-15 01 Mar 23:27:24 23:38:19 89° 118° (ESE) 23:49:24 29.354- 29.394
TISAT 1 01 Mar 23:29:59 23:34:16 78° 256° (WSW) 23:38:35 437.305
TIGRISAT 01 Mar 23:42:04 23:45:05 18° 292° (WNW) 23:48:00 435.000
CUSAT 1 01 Mar 23:44:17 23:50:59 78° 99° (E) 23:56:00 437.405
PHONESAT 2.4 01 Mar 23:47:36 23:50:37 24° 210° (SSW) 23:53:35 2401.200-2431.200
QB50P1 01 Mar 23:47:41 23:51:15 26° 290° (WNW) 23:54:43 145.935-145.965
QB50P2 01 Mar 23:51:17 23:54:43 24° 290° (WNW) 23:58:03 145.880/145.840
VERMONT LUNAR 01 Mar 23:52:24 23:53:34 11° 215° (SW) 23:54:38 437.305
ANTELSAT 01 Mar 23:55:53 23:58:02 13° 294° (WNW) 00:00:01 437.575/2403.000
BUGSAT 1 02 Mar 00:03:23 00:06:44 23° 291° (WNW) 00:09:57 437.445
DUCHIFAT 1 02 Mar 00:07:50 00:10:35 17° 293° (WNW) 00:13:12 145.980
SWISSCUBE 02 Mar 00:16:42 00:21:20 54° 74° (ENE) 00:26:02 437.505
BEESAT 02 Mar 00:25:28 00:30:09 61° 74° (ENE) 00:34:53 436.000
POLYITAN 1 02 Mar 00:28:57 00:29:32 10° 296° (WNW) 00:29:52 437.675
POPSAT HIP 1 02 Mar 00:30:08 00:30:32 10° 296° (WNW) 00:30:42 437.405
DANDE 02 Mar 00:52:07 00:58:32 36° 283° (WNW) 01:03:30 436.750
ITUPSAT 1 02 Mar 00:52:10 00:56:56 72° 258° (WSW) 01:01:45 437.325
KKS-1 02 Mar 00:53:01 00:56:24 22° 68° (ENE) 00:59:55 437.445
STARS 02 Mar 01:02:03 01:04:57 18° 67° (ENE) 01:08:00 437.465
YUBILEINY 02 Mar 01:07:26 01:10:45 13° 56° (ENE) 01:14:45 435.215
SO-50 02 Mar 01:09:10 01:13:31 45° 116° (ESE) 01:18:03 436.795
BEESAT 3 02 Mar 01:14:55 01:18:12 22° 48° (NE) 01:21:29 437.485
ITAMSAT 1 02 Mar 01:18:12 01:22:06 22° 93° (E) 01:26:08 435.822/435.867
Oscar 19 02 Mar 01:21:01 01:26:09 72° 101° (ESE) 01:31:17 437.125/150
CUSAT 1 02 Mar 01:31:11 01:34:01 13° 289° (WNW) 01:36:15 437.405
AIST 2 02 Mar 01:32:37 01:34:44 14° 41° (NE) 01:36:58 435.215
BEESAT 2 02 Mar 01:39:07 01:42:53 32° 51° (NE) 01:46:37 435.950
RS-15 02 Mar 01:43:02 01:52:23 30° 327° (NNW) 02:01:42 29.354- 29.394
SWISSCUBE 02 Mar 01:56:50 01:59:37 15° 270° (W) 02:02:12 437.505
BEESAT 02 Mar 02:06:12 02:08:31 13° 271° (W) 02:10:32 436.000
Gurwin Techsat 1B 02 Mar 02:23:51 02:29:11 70° 102° (ESE) 02:34:29 435.225
KKS-1 02 Mar 02:28:50 02:32:54 33° 263° (W) 02:36:57 437.445
STARS 02 Mar 02:36:57 02:41:10 41° 262° (W) 02:45:21 437.465
HORYU 2 02 Mar 02:47:31 02:51:26 30° 96° (E) 02:55:22 437.375
SO-50 02 Mar 02:50:37 02:54:19 22° 315° (NW) 02:58:03 436.795
BEESAT 3 02 Mar 02:52:37 02:56:23 34° 245° (WSW) 03:00:03 437.485
ITAMSAT 1 02 Mar 02:56:54 03:01:50 43° 289° (WNW) 03:06:43 435.822/435.867
YUBILEINY 02 Mar 03:00:51 03:09:42 70° 80° (E) 03:18:29 435.215
Oscar 19 02 Mar 03:02:20 03:04:59 14° 297° (WNW) 03:07:23 437.125/150
AIST 2 02 Mar 03:09:38 03:13:54 74° 241° (WSW) 03:18:05 435.215
JAS-2 02 Mar 03:14:18 03:20:21 27° 92° (E) 03:26:53 435.910
BEESAT 2 02 Mar 03:17:39 03:20:54 22° 248° (WSW) 03:24:01 435.950
AO-7 02 Mar 03:28:03 03:35:47 43° 99° (E) 03:43:34 29.400- 29.500
M-CUBED/EXP-1 PRIME 02 Mar 03:28:21 03:31:36 63° 254° (WSW) 03:34:58 437.505
AUBIESAT-1 02 Mar 03:30:58 03:34:15 68° 254° (WSW) 03:37:38 437.475
MOZHAYETS 4 02 Mar 03:33:49 03:38:15 53° 74° (ENE) 03:42:43
JUGNU 02 Mar 03:40:32 03:42:12 11° 179° (S) 03:43:53 437.505
RS-15 02 Mar 04:03:09 04:09:55 17° 1° (N) 04:16:52 29.354- 29.394
Gurwin Techsat 1B 02 Mar 04:05:35 04:08:38 15° 297° (WNW) 04:11:27 435.225
HORYU 2 02 Mar 04:24:23 04:27:59 24° 291° (WNW) 04:31:29 437.375
CUTE-I 02 Mar 04:50:05 04:51:40 11° 87° (E) 04:53:36 437.470
PRISM 02 Mar 04:57:32 05:01:10 31° 71° (ENE) 05:04:54 437.425
JAS-2 02 Mar 04:58:27 05:05:46 62° 288° (WNW) 05:13:27 435.910
YUBILEINY 02 Mar 04:59:06 05:05:48 24° 277° (W) 05:12:08 435.215
PCSat 02 Mar 05:10:49 05:15:52 39° 54° (NE) 05:20:57 145.827
MOZHAYETS 4 02 Mar 05:13:28 05:15:53 14° 271° (W) 05:18:05
STRAND 1 02 Mar 05:19:16 05:23:53 35° 70° (ENE) 05:28:35 437.568
AO-7 02 Mar 05:20:55 05:28:35 42° 297° (WNW) 05:36:08 29.400- 29.500
SRMSAT 02 Mar 05:29:01 05:30:47 11° 180° (S) 05:32:32 437.500
CUBESAT XI-V 02 Mar 05:30:27 05:35:06 70° 75° (ENE) 05:39:48 437.345
RS-15 02 Mar 06:17:45 06:27:25 32° 35° (NE) 06:37:40 29.354- 29.394
Cubesat XI-IV 02 Mar 06:17:54 06:23:18 86° 101° (E) 06:28:41 437.490
AIST 1 02 Mar 06:19:24 06:23:05 28° 91° (E) 06:26:53
CUTE-I 02 Mar 06:27:07 06:32:30 80° 286° (WNW) 06:37:51 437.470
PRISM 02 Mar 06:33:42 06:36:46 19° 267° (W) 06:39:45 437.425
JAS-2 02 Mar 06:46:55 06:49:43 12° 303° (WNW) 06:52:03 435.910
PCSat 02 Mar 06:54:33 06:59:10 28° 251° (WSW) 07:03:39 145.827
STRAND 1 02 Mar 06:58:53 07:03:11 26° 266° (W) 07:07:25 437.568
CUBESAT XI-V 02 Mar 07:11:50 07:13:09 11° 273° (W) 07:14:10 437.345
BRITE-PL 02 Mar 07:13:14 07:14:43 12° 87° (E) 07:16:27 437.365/2234.400
GONETS M04 02 Mar 07:14:25 07:20:10 20° 62° (ENE) 07:26:23
HO-68 02 Mar 07:23:38 07:28:07 18° 89° (E) 07:32:59 435.675
ISS 02 Mar 07:27:19 07:27:33 10° 129° (SE) 07:27:57 145.825
SEEDS 02 Mar 07:38:22 07:39:19 11° 88° (E) 07:40:32 437.485
CANX-2 02 Mar 07:39:18 07:41:46 15° 91° (E) 07:44:25 2200.000
O/OREOS (USA 219) 02 Mar 07:53:04 07:54:46 12° 99° (E) 07:56:43 437.305
CUTE 1.7 + AOD 2 02 Mar 07:57:19 08:00:38 22° 94° (E) 08:04:03 437.475
AIST 1 02 Mar 07:57:21 08:00:48 22° 287° (WNW) 08:04:11
DOVE 4 02 Mar 07:57:54 08:00:25 16° 90° (E) 08:03:04 437.250
Cubesat XI-IV 02 Mar 08:00:24 08:02:46 13° 299° (WNW) 08:04:50 437.490
CUTE-I 02 Mar 08:10:49 08:11:49 10° 300° (WNW) 08:12:29 437.470
CINEMA 3 02 Mar 08:11:29 08:12:29 11° 88° (E) 08:13:45 145.822/145.860
RS-15 02 Mar 08:29:57 08:41:29 87° 240° (WSW) 08:53:31 29.354- 29.394
Oscar 11 02 Mar 08:32:09 08:34:43 16° 91° (E) 08:37:28 145.826/435.025
CUBEBUG 2 02 Mar 08:35:43 08:36:58 11° 89° (E) 08:38:27 437.445
UNISAT 6 02 Mar 08:38:27 08:41:10 17° 67° (ENE) 08:44:00 437.425
AAUSAT CUBESAT 2 02 Mar 08:42:47 08:46:49 44° 98° (E) 08:50:51 437.432
COMPASS 1 02 Mar 08:44:51 08:48:59 55° 99° (E) 08:53:07 437.405
BRITE-PL 02 Mar 08:49:23 08:53:52 55° 286° (WNW) 08:58:03 437.365/2234.400
DX 1 02 Mar 08:56:02 08:57:58 13° 90° (E) 09:00:08 434.975-435.025
GOMX 1 02 Mar 08:56:55 09:01:18 69° 285° (WNW) 09:05:27 467.674
ISS 02 Mar 09:00:23 09:03:36 75° 324° (NW) 09:06:50 145.825
TIGRISAT 02 Mar 09:02:38 09:06:25 29° 71° (ENE) 09:10:12 435.000
QB50P1 02 Mar 09:04:32 09:07:17 17° 67° (ENE) 09:10:11 145.935-145.965
QB50P2 02 Mar 09:07:55 09:10:54 19° 68° (ENE) 09:14:02 145.880/145.840
HO-68 02 Mar 09:09:28 09:16:41 77° 288° (WNW) 09:23:51 435.675
GONETS M04 02 Mar 09:09:31 09:18:19 84° 264° (W) 09:27:07
SEEDS 02 Mar 09:11:26 09:15:35 58° 285° (WNW) 09:19:44 437.485
CANX-2 02 Mar 09:13:57 09:17:57 41° 287° (WNW) 09:21:57 2200.000
FUNcube-1 02 Mar 09:15:07 09:18:21 22° 94° (E) 09:21:40 145.935
ANTELSAT 02 Mar 09:15:32 09:19:41 41° 73° (ENE) 09:23:47 437.575/2403.000
ZACube-1 02 Mar 09:16:06 09:19:24 23° 94° (E) 09:22:48 437.345
BUGSAT 1 02 Mar 09:17:34 09:20:24 18° 68° (ENE) 09:23:23 437.445
DUCHIFAT 1 02 Mar 09:22:50 09:26:25 27° 70° (ENE) 09:30:03 145.980
HUMSAT D 02 Mar 09:24:24 09:26:37 15° 91° (E) 09:29:00 437.325/437.525
UKube-1 02 Mar 09:24:54 09:28:33 26° 95° (E) 09:32:15 .
O/OREOS (USA 219) 02 Mar 09:29:13 09:33:43 59° 294° (WNW) 09:38:15 437.305
CUTE 1.7 + AOD 2 02 Mar 09:32:55 09:36:36 28° 289° (WNW) 09:40:13 437.475
UWE-3 02 Mar 09:33:34 09:37:35 46° 99° (E) 09:41:36 435.000/436.395/437.385
DOVE 4 02 Mar 09:34:30 09:38:29 37° 288° (WNW) 09:42:18 437.250
SO-50 02 Mar 09:41:39 09:46:07 34° 50° (NE) 09:50:37 436.795
POLYITAN 1 02 Mar 09:41:52 09:45:57 45° 73° (ENE) 09:50:05 437.675
POPSAT HIP 1 02 Mar 09:42:39 09:46:44 45° 73° (ENE) 09:50:51 437.405
CINEMA 3 02 Mar 09:46:05 09:50:10 53° 286° (WNW) 09:54:11 145.822/145.860
DELFI C3 02 Mar 09:53:36 09:57:41 72° 284° (WNW) 10:01:45 145.870
NANOSAT C BR1 02 Mar 10:05:48 10:10:06 85° 77° (ENE) 10:14:24 145.865
Oscar 11 02 Mar 10:07:04 10:11:09 41° 287° (WNW) 10:15:13 145.826/435.025
CUBEBUG 2 02 Mar 10:10:03 10:14:05 51° 286° (WNW) 10:18:08 437.445
UNISAT 6 02 Mar 10:13:28 10:17:42 42° 261° (W) 10:21:51 437.425
AAUSAT CUBESAT 2 02 Mar 10:19:42 10:22:09 15° 293° (WNW) 10:24:26 437.432
COMPASS 1 02 Mar 10:22:26 10:24:18 12° 294° (WNW) 10:25:57 437.405
CUSAT 1 02 Mar 10:25:55 10:28:10 26° 76° (ENE) 10:30:30 437.405
DX 1 02 Mar 10:30:21 10:34:37 51° 286° (WNW) 10:38:49 434.975-435.025
AISAT 02 Mar 10:31:18 10:35:43 64° 101° (E) 10:40:06 437.250
CUBEBUG 1 02 Mar 10:36:50 10:40:42 30° 96° (E) 10:44:35 437.445
ISS 02 Mar 10:38:31 10:40:30 15° 341° (NNW) 10:42:27 145.825
QB50P1 02 Mar 10:38:52 10:42:55 39° 262° (W) 10:46:57 145.935-145.965
TIGRISAT 02 Mar 10:39:37 10:43:13 23° 266° (W) 10:46:39 435.000
VELOX 1 02 Mar 10:41:01 10:45:30 80° 102° (ESE) 10:49:55 145.980
QB50P2 02 Mar 10:42:40 10:46:37 35° 263° (W) 10:50:33 145.880/145.840
RS-15 02 Mar 10:44:36 10:52:43 21° 257° (WSW) 11:00:17 29.354- 29.394
FUNcube-1 02 Mar 10:51:11 10:54:43 27° 289° (WNW) 10:58:11 145.935
BUGSAT 1 02 Mar 10:51:39 10:55:39 38° 262° (W) 10:59:39 437.445
ZACube-1 02 Mar 10:52:18 10:55:47 26° 290° (WNW) 10:59:13 437.345
ANTELSAT 02 Mar 10:53:51 10:56:42 16° 268° (W) 10:59:21 437.575/2403.000
ESTCUBE 1 02 Mar 10:54:48 10:59:16 53° 99° (E) 11:03:44 437.505/2401.250
DUCHIFAT 1 02 Mar 10:58:40 11:02:14 24° 265° (W) 11:05:43 145.980
HUMSAT D 02 Mar 10:58:47 11:02:39 40° 287° (WNW) 11:06:30 437.325/437.525
HO-68 02 Mar 10:59:37 11:03:24 15° 305° (NW) 11:06:49 435.675
50 SAT 02 Mar 11:00:28 11:04:20 54° 285° (WNW) 11:08:11 437.505
UKube-1 02 Mar 11:01:02 11:04:40 25° 291° (WNW) 11:08:11 .
Oscar 19 02 Mar 11:01:46 11:03:09 11° 61° (ENE) 11:04:50 437.125/150
GONETS M04 02 Mar 11:09:19 11:14:01 15° 281° (W) 11:18:06
SPROUT 02 Mar 11:11:33 11:14:22 18° 92° (E) 11:17:20 437.525
UWE-3 02 Mar 11:11:35 11:13:48 14° 293° (WNW) 11:15:51 435.000/436.395/437.385
TISAT 1 02 Mar 11:17:04 11:19:54 18° 92° (E) 11:22:49 437.305
POLYITAN 1 02 Mar 11:19:42 11:22:11 14° 269° (W) 11:24:28 437.675
POPSAT HIP 1 02 Mar 11:20:26 11:22:55 14° 269° (W) 11:25:12 437.405
SO-50 02 Mar 11:22:17 11:26:39 31° 246° (WSW) 11:30:53 436.795
DANDE 02 Mar 11:36:38 11:38:49 22° 266° (W) 11:40:56 436.750
Gurwin Techsat 1B 02 Mar 12:07:44 12:09:46 13° 62° (ENE) 12:12:07 435.225
AISAT 02 Mar 12:10:00 12:11:51 12° 296° (WNW) 12:13:30 437.250
CUBEBUG 1 02 Mar 12:13:26 12:16:58 23° 291° (WNW) 12:20:23 437.445
SWISSCUBE 02 Mar 12:19:41 12:22:23 15° 90° (E) 12:25:18 437.505
BEESAT 02 Mar 12:28:05 12:31:09 17° 91° (E) 12:34:24 436.000
ESTCUBE 1 02 Mar 12:33:08 12:35:46 15° 295° (WNW) 12:38:13 437.505/2401.250
ITAMSAT 1 02 Mar 12:34:58 12:39:26 30° 68° (ENE) 12:44:00 435.822/435.867
Oscar 19 02 Mar 12:36:42 12:41:51 88° 247° (WSW) 12:47:02 437.125/150
AO-7 02 Mar 12:40:31 12:42:24 11° 47° (NE) 12:44:50 29.400- 29.500
SPROUT 02 Mar 12:46:41 12:50:39 36° 288° (WNW) 12:54:34 437.525
TISAT 1 02 Mar 12:51:59 12:55:52 35° 288° (WNW) 12:59:40 437.305
ITUPSAT 1 02 Mar 12:54:18 12:58:36 32° 96° (E) 13:02:55 437.325
Gurwin Techsat 1B 02 Mar 13:43:48 13:49:07 84° 257° (WSW) 13:54:29 435.225
HORYU 2 02 Mar 13:45:14 13:48:49 25° 69° (ENE) 13:52:29 437.375
ISS 02 Mar 13:53:22 13:55:32 17° 21° (NNE) 13:57:44 145.825
SWISSCUBE 02 Mar 13:55:56 14:00:38 53° 287° (WNW) 14:05:18 437.505
BEESAT 02 Mar 14:04:42 14:09:19 46° 288° (WNW) 14:13:53 436.000
YUBILEINY 02 Mar 14:09:01 14:12:52 14° 78° (ENE) 14:17:25 435.215
ITAMSAT 1 02 Mar 14:14:14 14:18:53 32° 264° (W) 14:23:30 435.822/435.867
KKS-1 02 Mar 14:20:44 14:25:03 50° 100° (E) 14:29:21 437.445
AO-7 02 Mar 14:25:33 14:33:32 53° 66° (ENE) 14:41:34 29.400- 29.500
STARS 02 Mar 14:27:55 14:32:00 37° 98° (E) 14:36:05 437.465
ITUPSAT 1 02 Mar 14:32:23 14:36:24 26° 292° (WNW) 14:40:20 437.325
JAS-2 02 Mar 15:10:04 15:15:19 53° 71° (ENE) 15:21:13 435.910
M-CUBED/EXP-1 PRIME 02 Mar 15:13:00 15:13:31 10° 95° (E) 15:14:23 437.505
HORYU 2 02 Mar 15:21:34 15:25:25 28° 264° (W) 15:29:13 437.375
ISS 02 Mar 15:29:06 15:32:21 87° 219° (SW) 15:35:35 145.825
MOZHAYETS 4 02 Mar 15:31:40 15:34:01 14° 89° (E) 15:36:35
KKS-1 02 Mar 15:58:44 16:01:20 15° 294° (WNW) 16:03:46 437.445
YUBILEINY 02 Mar 15:59:47 16:08:30 82° 96° (E) 16:17:20 435.215
Cubesat XI-IV 02 Mar 16:01:29 16:04:37 16° 63° (ENE) 16:07:57 437.490
STARS 02 Mar 16:05:07 16:08:15 19° 293° (WNW) 16:11:13 437.465
CUTE-I 02 Mar 16:09:58 16:13:34 19° 65° (ENE) 16:17:23 437.470
AO-7 02 Mar 16:19:14 16:26:39 33° 264° (W) 16:33:54 29.400- 29.500
VERMONT LUNAR 02 Mar 16:34:18 16:37:08 23° 151° (SSE) 16:40:00 437.305
PHONESAT 2.4 02 Mar 16:38:01 16:39:46 13° 145° (SE) 16:41:38 2401.200-2431.200
M-CUBED/EXP-1 PRIME 02 Mar 16:44:35 16:48:50 72° 288° (WNW) 16:53:24 437.505
BEESAT 3 02 Mar 16:44:45 16:48:45 56° 118° (ESE) 16:52:49 437.485
AUBIESAT-1 02 Mar 16:46:42 16:50:59 77° 289° (WNW) 16:55:34 437.475
